Location: Caoba
(9.7667°N, 67.4833°W)
Time: 20:37:11
(UTC+00:00)

GOES 2 Rocket - Pass Details

Date: 10 December 2024
Orbit: 569 x 1662 km, 28.4° (Epoch: 14 January)

Event Time Altitude Azimuth Distance (km) Brightness Sun altitude
Rises 00:05:17 0° 232° (SW) 4,758 8.7 -27.3°
Reaches altitude 10° 00:08:47 10° 229° (SW) 3,669 7.8 -28.1°
Maximum altitude 00:18:00 60° 152° (SSE) 1,444 4.7 -30.2°
Enters shadow 00:18:47 57° 128° (SE) 1,447 4.6 -30.4°
